KLM21J EHAM-LIEE

Flight info

Callsign KLM21J
Flight time N/A
Altitude 37000
Route EDUPO Z739 MISGO DCT ASBON DCT TUSUK DCT ULNOK L607 ABUKA/N0462F380 DCT KRH DCT NATOR/N0456F370 DCT TRA DCT RIPUS DCT GERSA DCT SOSON DCT ODINA DCT UNITA DCT OLETI DCT TORTU DCT OKROK DCT AJO DCT CORSI DCT UPDUT DCT MINKA DCT BOLOT/N0354F190 M858 RAMEN M732 KOVAS
Aircraft E190/M-SDE3GILORVW/S

Departure

Time N/A
Airport Amsterdam Airport Schiphol (EHAM)

Arrival

Time 2026-05-08 16:27
Airport Cagliari Elmas Airport (LIEE)
Time Latitude Longitude Altitude Speed Heading
2026-05-08 15:28 45.57738 8.75400 37045 ft 460 kts 178°
2026-05-08 15:28 45.54559 8.75931 37046 ft 460 kts 178°
2026-05-08 15:29 45.48204 8.76992 37047 ft 460 kts 178°
2026-05-08 15:29 45.41875 8.78039 37043 ft 461 kts 178°
2026-05-08 15:30 45.35506 8.79102 37020 ft 461 kts 178°
2026-05-08 15:30 45.29130 8.80160 37030 ft 461 kts 178°
2026-05-08 15:31 45.22757 8.81216 37058 ft 460 kts 178°
2026-05-08 15:31 45.16391 8.82266 37083 ft 461 kts 178°
2026-05-08 15:32 45.10025 8.83318 37074 ft 461 kts 178°
2026-05-08 15:32 45.03693 8.84356 37049 ft 459 kts 178°
2026-05-08 15:33 44.97319 8.85402 37047 ft 458 kts 179°
2026-05-08 15:33 44.91012 8.86436 37044 ft 459 kts 178°
2026-05-08 15:34 44.84671 8.87473 37032 ft 459 kts 179°
2026-05-08 15:34 44.78318 8.88506 37034 ft 459 kts 179°
2026-05-08 15:35 44.71965 8.89541 37027 ft 460 kts 179°
2026-05-08 15:35 44.65610 8.90567 37016 ft 459 kts 179°
2026-05-08 15:36 44.59260 8.91595 36997 ft 459 kts 179°
2026-05-08 15:36 44.52910 8.92623 37004 ft 459 kts 179°
2026-05-08 15:37 44.46550 8.93649 36992 ft 460 kts 179°
2026-05-08 15:37 44.40258 8.94671 36982 ft 457 kts 179°
2026-05-08 15:38 44.33934 8.95683 37001 ft 458 kts 179°
2026-05-08 15:38 44.27592 8.96692 37010 ft 459 kts 179°
2026-05-08 15:39 44.21247 8.97704 36990 ft 457 kts 179°
2026-05-08 15:39 44.15052 8.98696 36994 ft 457 kts 179°
2026-05-08 15:40 44.08811 8.99688 37013 ft 457 kts 179°
2026-05-08 15:40 44.02531 9.00686 36988 ft 457 kts 179°
2026-05-08 15:41 43.96229 9.01685 36997 ft 456 kts 179°
2026-05-08 15:41 43.89985 9.01617 37013 ft 447 kts 189°
2026-05-08 15:42 43.83776 9.01119 36988 ft 447 kts 189°
2026-05-08 15:42 43.77583 9.00538 37029 ft 444 kts 191°
2026-05-08 15:43 43.71411 8.99782 36985 ft 445 kts 191°
2026-05-08 15:43 43.65276 8.99047 37032 ft 444 kts 191°
2026-05-08 15:44 43.59107 8.98312 37004 ft 444 kts 191°
2026-05-08 15:44 43.52938 8.97589 37004 ft 445 kts 191°
2026-05-08 15:45 43.46763 8.96862 37006 ft 445 kts 191°
2026-05-08 15:45 43.40596 8.96138 37010 ft 445 kts 191°
2026-05-08 15:46 43.34431 8.95414 37008 ft 445 kts 191°
2026-05-08 15:46 43.28258 8.94683 37005 ft 445 kts 191°
2026-05-08 15:47 43.22166 8.93966 37013 ft 440 kts 191°
2026-05-08 15:47 43.16056 8.93247 37005 ft 441 kts 191°
2026-05-08 15:48 43.06877 8.92167 37006 ft 440 kts 191°
2026-05-08 15:49 43.00790 8.91460 37008 ft 439 kts 191°
2026-05-08 15:49 42.94705 8.90753 37013 ft 439 kts 191°
2026-05-08 15:50 42.88616 8.90047 37014 ft 439 kts 191°
2026-05-08 15:50 42.82547 8.89342 37021 ft 437 kts 191°
2026-05-08 15:51 42.76526 8.88648 37017 ft 437 kts 191°
2026-05-08 15:51 42.70459 8.87956 37021 ft 437 kts 191°
2026-05-08 15:52 42.64397 8.87264 37025 ft 437 kts 191°
2026-05-08 15:52 42.58340 8.86578 37022 ft 436 kts 191°
2026-05-08 15:53 42.52274 8.85892 37029 ft 438 kts 191°
2026-05-08 15:53 42.46211 8.85203 37005 ft 437 kts 191°
2026-05-08 15:54 42.40156 8.84524 36929 ft 438 kts 191°
2026-05-08 15:54 42.34109 8.83839 36854 ft 435 kts 191°
2026-05-08 15:55 42.28056 8.83157 36888 ft 437 kts 191°
2026-05-08 15:55 42.19032 8.82143 36860 ft 435 kts 191°
2026-05-08 15:56 42.13000 8.81467 36863 ft 434 kts 191°
2026-05-08 15:56 42.06978 8.80793 36876 ft 435 kts 191°
2026-05-08 15:57 42.00948 8.80119 36865 ft 434 kts 191°
2026-05-08 15:57 41.94923 8.79452 36861 ft 434 kts 191°
2026-05-08 15:58 41.89920 8.78892 36864 ft 434 kts 191°
2026-05-08 15:58 41.83900 8.78224 36879 ft 434 kts 191°
2026-05-08 15:59 41.77875 8.77565 36862 ft 435 kts 189°
2026-05-08 15:59 41.71763 8.77899 36867 ft 441 kts 183°
2026-05-08 16:00 41.65632 8.78426 36869 ft 441 kts 183°
2026-05-08 16:00 41.59553 8.78942 36883 ft 440 kts 183°
2026-05-08 16:01 41.53424 8.79456 36881 ft 441 kts 183°
2026-05-08 16:01 41.47287 8.79973 36874 ft 441 kts 183°
2026-05-08 16:02 41.41170 8.80492 36885 ft 440 kts 184°
2026-05-08 16:02 41.35062 8.81000 36876 ft 439 kts 184°
2026-05-08 16:03 41.32054 8.81511 36874 ft 450 kts 171°
2026-05-08 16:03 41.29070 8.82865 36890 ft 453 kts 168°
2026-05-08 16:03 41.23061 8.85141 36903 ft 439 kts 182°
2026-05-08 16:04 41.17024 8.85362 36866 ft 433 kts 187°
2026-05-08 16:04 41.11003 8.85422 36795 ft 433 kts 187°
2026-05-08 16:05 41.08009 8.85453 36472 ft 424 kts 187°
2026-05-08 16:05 41.05090 8.85482 36176 ft 417 kts 187°
2026-05-08 16:05 41.02201 8.85507 35871 ft 413 kts 187°
2026-05-08 16:05 40.99338 8.85529 35651 ft 410 kts 187°
2026-05-08 16:06 40.93637 8.85559 35082 ft 419 kts 187°
2026-05-08 16:06 40.90728 8.85585 34587 ft 416 kts 187°
2026-05-08 16:06 40.87830 8.85603 33973 ft 416 kts 186°
2026-05-08 16:07 40.84943 8.85621 33385 ft 414 kts 186°
2026-05-08 16:07 40.82066 8.85640 32817 ft 413 kts 186°
2026-05-08 16:07 40.79183 8.85744 32288 ft 417 kts 183°
2026-05-08 16:07 40.76273 8.86013 31727 ft 420 kts 182°
2026-05-08 16:08 40.73352 8.86275 31147 ft 423 kts 183°
2026-05-08 16:08 40.70409 8.86529 30606 ft 424 kts 182°
2026-05-08 16:08 40.67497 8.86781 30010 ft 426 kts 182°
2026-05-08 16:08 40.64543 8.87016 29459 ft 426 kts 183°
2026-05-08 16:09 40.61572 8.87251 28879 ft 429 kts 182°
2026-05-08 16:09 40.58600 8.87490 28332 ft 428 kts 182°
2026-05-08 16:09 40.55635 8.87727 27751 ft 424 kts 183°
2026-05-08 16:09 40.52701 8.87963 27196 ft 419 kts 183°
2026-05-08 16:10 40.49802 8.88194 26646 ft 415 kts 183°
2026-05-08 16:10 40.46928 8.88422 26096 ft 412 kts 183°
2026-05-08 16:10 40.44071 8.88647 25554 ft 409 kts 183°
2026-05-08 16:10 40.41238 8.88873 25016 ft 407 kts 183°
2026-05-08 16:11 40.38418 8.89094 24469 ft 404 kts 183°
2026-05-08 16:11 40.35616 8.89315 23941 ft 402 kts 183°
2026-05-08 16:11 40.32835 8.89545 23352 ft 400 kts 183°
2026-05-08 16:11 40.30075 8.89781 22866 ft 395 kts 183°
2026-05-08 16:12 40.27338 8.90014 22339 ft 394 kts 183°
2026-05-08 16:12 40.24641 8.90238 21836 ft 392 kts 183°
2026-05-08 16:12 40.21918 8.90467 21312 ft 391 kts 183°
2026-05-08 16:12 40.19205 8.90692 20796 ft 389 kts 183°
2026-05-08 16:13 40.16509 8.90918 20274 ft 387 kts 183°
2026-05-08 16:13 40.13827 8.91141 19768 ft 385 kts 183°
2026-05-08 16:13 40.11154 8.91364 19251 ft 382 kts 182°
2026-05-08 16:13 40.08517 8.91584 18738 ft 378 kts 182°
2026-05-08 16:14 40.05927 8.91801 18231 ft 376 kts 182°
2026-05-08 16:14 40.03326 8.92017 17748 ft 373 kts 182°
2026-05-08 16:14 40.00745 8.92234 17254 ft 371 kts 182°
2026-05-08 16:14 39.98166 8.92445 16764 ft 369 kts 182°
2026-05-08 16:15 39.95610 8.92657 16290 ft 367 kts 182°
2026-05-08 16:15 39.93059 8.92870 15775 ft 365 kts 181°
2026-05-08 16:15 39.90532 8.93076 15303 ft 363 kts 181°
2026-05-08 16:15 39.88016 8.93288 14816 ft 359 kts 181°
2026-05-08 16:16 39.85554 8.93495 14351 ft 351 kts 181°
2026-05-08 16:16 39.83141 8.93697 13884 ft 344 kts 181°
2026-05-08 16:16 39.80789 8.94112 13378 ft 343 kts 167°
2026-05-08 16:16 39.78684 8.95468 12980 ft 340 kts 151°
2026-05-08 16:17 39.76721 8.97143 12510 ft 335 kts 151°
2026-05-08 16:17 39.75403 8.98241 12208 ft 331 kts 151°
2026-05-08 16:17 39.72852 9.00339 11640 ft 324 kts 151°
2026-05-08 16:17 39.70954 9.01884 11213 ft 320 kts 151°
2026-05-08 16:18 39.69075 9.03407 10799 ft 316 kts 151°
2026-05-08 16:18 39.67223 9.04904 10375 ft 312 kts 152°
2026-05-08 16:18 39.65382 9.06381 9896 ft 310 kts 153°
2026-05-08 16:18 39.63400 9.07338 9388 ft 302 kts 175°
2026-05-08 16:19 39.61334 9.07400 8928 ft 295 kts 185°
2026-05-08 16:19 39.59310 9.07347 8323 ft 285 kts 183°
2026-05-08 16:19 39.57373 9.07343 7841 ft 272 kts 182°
2026-05-08 16:19 39.55516 9.07346 7369 ft 262 kts 182°
2026-05-08 16:20 39.53733 9.07342 6931 ft 250 kts 188°
2026-05-08 16:20 39.52163 9.06581 6470 ft 239 kts 215°
2026-05-08 16:20 39.50859 9.05308 6087 ft 232 kts 217°
2026-05-08 16:20 39.49584 9.04053 5688 ft 230 kts 216°
2026-05-08 16:21 39.48291 9.02803 5340 ft 234 kts 216°
2026-05-08 16:21 39.46980 9.01537 4943 ft 237 kts 216°
2026-05-08 16:21 39.45662 9.00273 4542 ft 233 kts 215°
2026-05-08 16:21 39.44372 8.99038 4095 ft 226 kts 216°
2026-05-08 16:22 39.43145 8.97878 3673 ft 215 kts 216°
2026-05-08 16:22 39.41939 8.96737 3334 ft 209 kts 216°
2026-05-08 16:22 39.40788 8.95650 3001 ft 206 kts 216°
2026-05-08 16:22 39.39641 8.94581 2755 ft 197 kts 216°
2026-05-08 16:23 39.38576 8.93574 2543 ft 184 kts 216°
2026-05-08 16:23 39.37445 8.92871 2146 ft 182 kts 191°
2026-05-08 16:23 39.36240 8.92951 2018 ft 169 kts 162°
2026-05-08 16:23 39.35240 8.93697 1891 ft 166 kts 138°
2026-05-08 16:24 39.34394 8.94708 1826 ft 165 kts 137°
2026-05-08 16:24 39.33545 8.95701 1804 ft 163 kts 138°
2026-05-08 16:24 39.32672 8.96681 1713 ft 168 kts 139°
2026-05-08 16:24 39.31792 8.97673 1536 ft 168 kts 137°
2026-05-08 16:25 39.30948 8.98661 1276 ft 158 kts 136°
2026-05-08 16:25 39.30179 8.99593 1096 ft 146 kts 137°
2026-05-08 16:25 39.29445 9.00452 931 ft 139 kts 139°
2026-05-08 16:25 39.28734 9.01285 695 ft 138 kts 139°
2026-05-08 16:26 39.28033 9.02108 517 ft 135 kts 140°
2026-05-08 16:26 39.27334 9.02909 363 ft 135 kts 140°
2026-05-08 16:26 39.26629 9.03718 198 ft 136 kts 140°
2026-05-08 16:26 39.25922 9.04536 23 ft 134 kts 140°
2026-05-08 16:27 39.25312 9.05240 12 ft 96 kts 138°
2026-05-08 16:27 39.24949 9.05659 15 ft 43 kts 137°
2026-05-08 16:27 39.24756 9.05880 14 ft 30 kts 138°
2026-05-08 16:27 39.24681 9.06011 13 ft 11 kts 95°
2026-05-08 16:28 39.24697 9.06091 14 ft 11 kts 66°
2026-05-08 16:28 39.24738 9.06205 14 ft 17 kts 66°
2026-05-08 16:28 39.24784 9.06293 14 ft 10 kts 11°
2026-05-08 16:28 39.24858 9.06240 14 ft 15 kts 327°
2026-05-08 16:29 39.24949 9.06153 16 ft 14 kts 320°
2026-05-08 16:29 39.25015 9.06074 14 ft 14 kts 314°
2026-05-08 16:29 39.25064 9.06004 14 ft 9 kts 311°
2026-05-08 16:29 39.25117 9.05927 14 ft 10 kts 311°
2026-05-08 16:30 39.25148 9.05935 14 ft 7 kts 39°
2026-05-08 16:30 39.25188 9.06000 14 ft 11 kts 52°
2026-05-08 16:30 39.25242 9.06001 15 ft 9 kts 320°
2026-05-08 16:30 39.25263 9.05980 14 ft 0 kts 322°